Regional Weather Roundup
Issued by NWS Sterling, VA

Home | Current Version | Previous Version | Text Only | Print | Product List | Glossary On
Versions: 1 2 3 4 5 6 7 8 9 10 11 12 13 14 15 16 17 18 19 20 21 22 23 24 25 26
411
ASUS41 KLWX 221310
RWRLWX

REGIONAL WEATHER ROUNDUP
NATIONAL WEATHER SERVICE BALTIMORE MD/WASHINGTON DC
900 AM EDT FRI MAY 22 2015

Note: "FAIR" indicates few or no clouds below 12,000 feet
with no significant weather and/or obstructions to visibility.
 TC=TEMPERATURE CELSIUS

 * =Non NWS site. Station does not report precipitation (e.g. rain,
    snow, etc.), thunder, or fog.

DCZ001-MDZ009-015-VAZ040>042-051-053>054-221400-
WASHINGTON METRO

CITY           SKY/WX    TMP DP  RH WIND       PRES   REMARKS
WASHINGTON NAT SUNNY     62  44  51 NW10G16   30.09R
DULLES         SUNNY     58  43  57 NW14      30.10R
ANDREWS AFB    SUNNY     58  45  60 W14       30.07R
FT BELVOIR     SUNNY     59  46  60 W9        30.09R
QUANTICO       SUNNY     59  43  55 VRB3      30.12R
COLLEGE PARK*  SUNNY     59  45  58 W6        30.08R
LEESBURG*      SUNNY     59  46  63 NW8       30.11R
MANASSAS*      SUNNY     61  45  55 W8        30.11R
GAITHERSBURG*  SUNNY     55  43  62 NW13G18   30.12R

$$

MDZ006>007-011-014-221400-
BALTIMORE METRO

CITY           SKY/WX    TMP DP  RH WIND       PRES   REMARKS
BWI AIRPORT    SUNNY     59  46  62 W9        30.05R
MD SCIENCE CTR   N/A     62  43  49 MISG      30.05R
MARTIN STATE   SUNNY     61  48  63 W8        30.06R
ANNAPOLIS      SUNNY     57  45  64 NW12      30.06R
FORT MEADE*    SUNNY     55  50  82 W7        30.09R

$$

MDZ012-015-019>023-221400-
MARYLAND EASTERN SHORE

CITY           SKY/WX    TMP DP  RH WIND       PRES   REMARKS
OCEAN CITY     SUNNY     58  48  69 NW12G21   30.04R
SALISBURY      SUNNY     59  48  67 NW10      30.05R
BAY BRIDGE AP*   N/A    N/A N/A N/A W7        30.07R
CAMBRIDGE*     SUNNY     61  46  59 NW9G21    30.06R

$$

MDZ017>025-221400-
SOUTHERN MARYLAND

CITY           SKY/WX    TMP DP  RH WIND       PRES   REMARKS
PATUXENT RIVER SUNNY     59  45  59 NW14      30.08R
ST INIGOES     SUNNY     59  46  62 W10G17    30.08R
LEONARDTOWN*   SUNNY     57  45  62 W9G16     30.10R

$$

MDZ003>005-221400-
NORTH CENTRAL MARYLAND

CITY           SKY/WX    TMP DP  RH WIND       PRES   REMARKS
FREDERICK*     SUNNY     59  46  63 W8        30.11R
HAGERSTOWN APT SUNNY     55  42  61 SW7       30.09R
WESTMINSTER*   SUNNY     55  43  62 W8        30.06R

$$

MDZ501>502-221400-
WESTERN MARYLAND

CITY           SKY/WX    TMP DP  RH WIND       PRES   REMARKS
OAKLAND*       SUNNY     43 N/A N/A W8        30.13R
CUMBERLAND*    SUNNY     59  41  51 SW8       30.15R

$$

VAZ025>031-221400-
SHENANDOAH VALLEY

CITY           SKY/WX    TMP DP  RH WIND       PRES   REMARKS
WINCHESTER*    SUNNY     59  37  44 W14       30.10R
FRONT ROYAL*   FAIR      55  45  67 S7        30.11R
LURAY*         FAIR      57  45  62 S8        30.14R
NEW MARKET*    FAIR      56  40  55 CALM      30.14R
STAUNTON*      SUNNY     56  40  53 SW3       30.18R
WAYNESBORO*    FAIR      53  38  57 W5        30.16R

$$

WVZ021-048>050-054>055-221400-
EASTERN WEST VIRGINIA PANHANDLE

CITY           SKY/WX    TMP DP  RH WIND       PRES   REMARKS
MARTINSBURG    SUNNY     58  41  53 W13       30.10R
PETERSBURG*    SUNNY     58  41  52 CALM      30.14S

$$

VAZ036>039-050-221400-
CENTRAL FOOTHILLS

CITY           SKY/WX    TMP DP  RH WIND       PRES   REMARKS
CHARLOTTESVILL SUNNY     58  40  51 W12       30.13R
CULPEPER*      SUNNY     58  44  59 W6        30.12R
ORANGE*        SUNNY     59  45  58 SW7       30.14
GORDONSVILLE*  FAIR      58  43  56 W5        30.12R
WARRENTON*     FAIR      61  47  59 W3        30.11R

$$

VAZ055>057-221400-
NORTH AND CENTRAL PIEDMONT

CITY           SKY/WX    TMP DP  RH WIND       PRES   REMARKS
FREDERICKSBRG* SUNNY     60  47  62 SW5       30.11R
STAFFORD*      SUNNY     57  44  60 W6        30.15R

$$

NCZ024-NYZ072-PAZ021-071-VAZ022-071-221400-
OTHER REGIONAL OBSERVATIONS

CITY           SKY/WX    TMP DP  RH WIND       PRES   REMARKS
NEW YORK CITY  SUNNY     60  40  47 VRB3      29.94S
PHILADELPHIA   SUNNY     61  42  49 NW12      29.99R
PITTSBURGH     MOSUNNY   53  42  66 W6        30.11R
ROANOKE        SUNNY     56  39  53 NW9       30.22R
RICHMOND       SUNNY     60  44  55 W8        30.13R
RALEIGH        MOSUNNY   60  46  59 VRB5      30.18R

$$

ANZ530>537-221400-
MARINE OBSERVATIONS

STATION/POSITION TIME  TEMP    WIND        PRES
                       AIR SEA DIR/SP/G
                 (UTC) (F)     (DEG/KT/KT) (MB)
THOMAS PT LIGHT  1300   56 64  290/ 16/ 18 1018.4R
BALT KEY BRIDGE  1200   55     270/ 15/ 17 1016.6R
LEWISETTA        1200   58 66              1018.2R
PINEY POINT      1200          340/ 19/ 22   N/A

$$




USA.gov is the U.S. government's official web portal to all federal, state and local government web resources and services.